• In United Kingdom
  • List of Countries
  • For 7 days
  • Water Temperature
  • Satellite Maps
  • Weather Map
  • Weather Widgets
  • user-avatar
    Login

    Hourly Weather Kurytyba

    Today, 14 November, Wednesday

    Time Temperature Precipitation Wind Pressure Humidity
    00:00 +22°C° 0 mm 1 mps 679 mmHg 91%
    01:00 +22°C° 0 mm 1 mps 679 mmHg 91%
    02:00 +22°C° 0 mm 1 mps 679 mmHg 91%
    03:00 +22°C° 0 mm 1 mps 678 mmHg 92%
    04:00 +22°C° 0 mm 1 mps 678 mmHg 91%
    05:00 +22°C° 0 mm 1 mps 678 mmHg 91%
    06:00 +22°C° 0 mm 1 mps 678 mmHg 90%
    07:00 +23°C° 0.6 mm 1 mps 679 mmHg 86%
    08:00 +25°C° 0.6 mm 2 mps 679 mmHg 81%
    09:00 +26°C° 0 mm 2 mps 680 mmHg 76%
    10:00 +27°C° 0.8 mm 2 mps 679 mmHg 73%
    11:00 +28°C° 0.8 mm 2 mps 679 mmHg 70%
    12:00 +29°C° 0.8 mm 2 mps 679 mmHg 67%
    13:00 +29°C° 0.9 mm 2 mps 679 mmHg 67%
    14:00 +29°C° 0.9 mm 2 mps 679 mmHg 68%
    15:00 +29°C° 0.9 mm 2 mps 679 mmHg 69%
    16:00 +27°C° 0.4 mm 2 mps 679 mmHg 74%
    17:00 +26°C° 0.4 mm 1 mps 678 mmHg 79%
    18:00 +25°C° 0.4 mm 1 mps 678 mmHg 84%
    19:00 +24°C° 0 mm 1 mps 678 mmHg 86%
    20:00 +23°C° 0 mm 1 mps 678 mmHg 88%
    21:00 +21°C° 0 mm 0 mps 678 mmHg 90%
    22:00 +20°C° 0.1 mm 0 mps 678 mmHg 90%
    23:00 +20°C° 0.1 mm 0 mps 678 mmHg 91%

    Tomorrow, 15 November, Thursday

    Time Temperature Precipitation Wind Pressure Humidity
    00:00 +22°C° 0.1 mm 1 mps 678 mmHg 92%
    01:00 +21°C° 0.4 mm 1 mps 678 mmHg 93%
    02:00 +21°C° 0.4 mm 1 mps 678 mmHg 95%
    03:00 +21°C° 0.4 mm 1 mps 678 mmHg 96%
    04:00 +21°C° 0.5 mm 1 mps 678 mmHg 96%
    05:00 +21°C° 0.5 mm 1 mps 678 mmHg 97%
    06:00 +21°C° 0.5 mm 1 mps 679 mmHg 97%
    07:00 +21°C° 0.1 mm 1 mps 679 mmHg 94%
    08:00 +21°C° 0.1 mm 1 mps 679 mmHg 91%
    09:00 +22°C° 0.1 mm 1 mps 680 mmHg 89%
    10:00 +23°C° 0.1 mm 1 mps 680 mmHg 83%
    11:00 +23°C° 0.1 mm 2 mps 680 mmHg 76%
    12:00 +24°C° 0.1 mm 2 mps 680 mmHg 70%
    13:00 +24°C° 0.1 mm 2 mps 680 mmHg 70%
    14:00 +24°C° 0.1 mm 2 mps 680 mmHg 70%
    15:00 +24°C° 0.1 mm 2 mps 679 mmHg 70%
    16:00 +23°C° 0 mm 2 mps 679 mmHg 71%
    17:00 +23°C° 0 mm 2 mps 679 mmHg 72%
    18:00 +21°C° 0 mm 2 mps 679 mmHg 73%
    19:00 +20°C° 0 mm 2 mps 680 mmHg 77%
    20:00 +18°C° 0 mm 2 mps 680 mmHg 81%
    21:00 +18°C° 0 mm 1 mps 681 mmHg 85%
    22:00 +16°C° 0 mm 1 mps 681 mmHg 87%
    23:00 +15°C° 0 mm 1 mps 681 mmHg 88%

    Day after tomorrow, 16 November, Friday

    Time Temperature Precipitation Wind Pressure Humidity
    00:00 +15°C° 0 mm 1 mps 681 mmHg 89%
    01:00 +15°C° 0 mm 1 mps 681 mmHg 91%
    02:00 +14°C° 0 mm 1 mps 681 mmHg 93%
    03:00 +14°C° 0 mm 1 mps 681 mmHg 95%
    04:00 +14°C° 0 mm 1 mps 681 mmHg 95%
    05:00 +14°C° 0 mm 1 mps 681 mmHg 94%
    06:00 +15°C° 0 mm 1 mps 681 mmHg 94%
    07:00 +18°C° 0 mm 1 mps 682 mmHg 84%
    08:00 +20°C° 0 mm 1 mps 683 mmHg 74%
    09:00 +21°C° 0 mm 2 mps 684 mmHg 63%
    10:00 +24°C° 0 mm 2 mps 684 mmHg 58%
    11:00 +25°C° 0 mm 2 mps 684 mmHg 53%
    12:00 +27°C° 0 mm 2 mps 685 mmHg 48%
    13:00 +27°C° 0 mm 2 mps 684 mmHg 49%
    14:00 +27°C° 0 mm 2 mps 683 mmHg 50%
    15:00 +27°C° 0 mm 3 mps 683 mmHg 50%
    16:00 +25°C° 0 mm 3 mps 683 mmHg 57%
    17:00 +24°C° 0 mm 3 mps 682 mmHg 64%
    18:00 +21°C° 0 mm 3 mps 682 mmHg 71%
    19:00 +19°C° 0 mm 2 mps 683 mmHg 77%
    20:00 +17°C° 0 mm 2 mps 683 mmHg 83%
    21:00 +16°C° 0 mm 2 mps 684 mmHg 90%
    22:00 +15°C° 0 mm 2 mps 684 mmHg 91%
    23:00 +15°C° 0 mm 2 mps 684 mmHg 92%

    17 November, Saturday

    Time Temperature Precipitation Wind Pressure Humidity
    00:00 +14°C° 0 mm 2 mps 684 mmHg 93%
    01:00 +14°C° 0 mm 1 mps 683 mmHg 93%
    02:00 +14°C° 0 mm 1 mps 683 mmHg 94%
    03:00 +13°C° 0 mm 1 mps 682 mmHg 95%
    04:00 +13°C° 0 mm 1 mps 682 mmHg 94%
    05:00 +13°C° 0 mm 1 mps 682 mmHg 94%
    06:00 +14°C° 0 mm 1 mps 682 mmHg 94%
    07:00 +16°C° 0 mm 1 mps 683 mmHg 84%
    08:00 +18°C° 0 mm 2 mps 684 mmHg 75%
    09:00 +20°C° 0 mm 2 mps 684 mmHg 65%
    10:00 +23°C° 0 mm 2 mps 684 mmHg 61%
    11:00 +25°C° 0 mm 2 mps 684 mmHg 57%
    12:00 +27°C° 0 mm 2 mps 684 mmHg 52%
    13:00 +27°C° 0 mm 2 mps 684 mmHg 53%
    14:00 +27°C° 0 mm 2 mps 683 mmHg 53%
    15:00 +28°C° 0 mm 2 mps 682 mmHg 53%
    16:00 +26°C° 0 mm 2 mps 682 mmHg 60%
    17:00 +25°C° 0 mm 2 mps 681 mmHg 66%
    18:00 +24°C° 0 mm 2 mps 681 mmHg 73%
    19:00 +21°C° 0 mm 2 mps 681 mmHg 79%
    20:00 +20°C° 0 mm 2 mps 681 mmHg 85%
    21:00 +18°C° 0 mm 2 mps 681 mmHg 91%
    22:00 +19°C° 0 mm 1 mps 680 mmHg 93%
    23:00 +19°C° 0 mm 1 mps 680 mmHg 95%

    18 November, Sunday

    Time Temperature Precipitation Wind Pressure Humidity
    00:00 +18°C° 0 mm 1 mps 680 mmHg 96%
    01:00 +19°C° 0 mm 1 mps 679 mmHg 96%
    02:00 +19°C° 0 mm 1 mps 679 mmHg 95%
    03:00 +18°C° 0 mm 2 mps 678 mmHg 95%
    04:00 +18°C° 0 mm 2 mps 678 mmHg 93%
    05:00 +18°C° 0 mm 2 mps 678 mmHg 90%
    06:00 +19°C° 0 mm 2 mps 678 mmHg 88%
    07:00 +20°C° 0 mm 3 mps 678 mmHg 82%
    08:00 +21°C° 0 mm 3 mps 678 mmHg 76%
    09:00 +22°C° 0 mm 3 mps 679 mmHg 70%
    10:00 +24°C° 0.2 mm 3 mps 679 mmHg 70%
    11:00 +24°C° 0.2 mm 3 mps 679 mmHg 71%
    12:00 +24°C° 0.2 mm 3 mps 679 mmHg 71%
    13:00 +25°C° 0.1 mm 3 mps 678 mmHg 69%
    14:00 +26°C° 0.1 mm 3 mps 678 mmHg 67%
    15:00 +27°C° 0.1 mm 3 mps 678 mmHg 65%
    16:00 +25°C° 0.7 mm 2 mps 677 mmHg 75%
    17:00 +23°C° 0.7 mm 2 mps 677 mmHg 85%
    18:00 +21°C° 0.7 mm 1 mps 677 mmHg 95%
    19:00 +21°C° 0 mm 1 mps 678 mmHg 96%
    20:00 +20°C° 0 mm 1 mps 678 mmHg 96%
    21:00 +20°C° 0 mm 1 mps 679 mmHg 97%
    22:00 +19°C° 0.2 mm 1 mps 679 mmHg 97%
    23:00 +19°C° 0.2 mm 1 mps 679 mmHg 97%

    19 November, Monday

    Time Temperature Precipitation Wind Pressure Humidity
    00:00 +17°C° 0.2 mm 2 mps 680 mmHg 97%
    01:00 +17°C° 0.1 mm 2 mps 679 mmHg 97%
    02:00 +17°C° 0.1 mm 2 mps 679 mmHg 97%
    03:00 +16°C° 0.1 mm 2 mps 679 mmHg 97%
    04:00 +16°C° 0.1 mm 2 mps 680 mmHg 96%
    05:00 +15°C° 0.1 mm 2 mps 680 mmHg 96%
    06:00 +15°C° 0.1 mm 2 mps 681 mmHg 95%
    07:00 +15°C° 0.1 mm 2 mps 681 mmHg 91%
    08:00 +16°C° 0.1 mm 2 mps 682 mmHg 86%
    09:00 +16°C° 0.1 mm 2 mps 682 mmHg 82%
    10:00 +17°C° 0 mm 2 mps 682 mmHg 78%
    11:00 +18°C° 0 mm 2 mps 683 mmHg 73%
    12:00 +19°C° 0 mm 2 mps 683 mmHg 69%
    13:00 +19°C° 0 mm 2 mps 682 mmHg 66%
    14:00 +20°C° 0 mm 2 mps 682 mmHg 63%
    15:00 +21°C° 0 mm 2 mps 682 mmHg 60%
    16:00 +19°C° 0 mm 2 mps 682 mmHg 65%
    17:00 +18°C° 0 mm 2 mps 682 mmHg 69%
    18:00 +17°C° 0 mm 2 mps 681 mmHg 74%
    19:00 +16°C° 0 mm 2 mps 682 mmHg 80%
    20:00 +14°C° 0 mm 2 mps 682 mmHg 85%
    21:00 +13°C° 0 mm 2 mps 683 mmHg 91%
    22:00 +13°C° 0 mm 1 mps 683 mmHg 92%
    23:00 +13°C° 0 mm 1 mps 683 mmHg 92%
    Show more